Location: *
(42.5628°N, 2.3633°E)
Time: 02:58:57
(UTC+00:00)

STARLINK-1098 - Pass Details

Date: 30 March 2020
Orbit: 548 x 551 km, 53.0° (Epoch: 31 May)

Event Time Altitude Azimuth Distance (km) Brightness Sun altitude
Rises 19:53:48 0° 308° (NW) 2,724 8.7 -18.4°
Reaches altitude 10° 19:56:08 10° 315° (NW) 1,828 7.3 -18.8°
Maximum altitude 20:00:05 42° 27° (NNE) 797 4.3 -19.4°
Enters shadow 20:00:57 36° 60° (ENE) 875 4.3 -19.6°
